Weather History for KDYT - September, 2013

Change the Weather History Date:

Sunday, September 15, 2013

  Actual Average Record
Temperature  
Mean Temperature 54 °F -  
Max Temperature 59 °F 66 °F 84 °F (2015)
Min Temperature 48 °F 46 °F 32 °F (2007)
Degree Days  
Heating Degree Days 10    
Growing Degree Days 4 (Base 50)    
Moisture  
Dew Point 50 °F    
Average Humidity 84    
Maximum Humidity 94    
Minimum Humidity 72    
Precipitation  
Precipitation 0.00 in - - ()
Sea Level Pressure  
Sea Level Pressure 30.15 in    
Wind  
Wind Speed 9 mph (NE)    
Max Wind Speed 34 mph    
Max Gust Speed 44 mph    
Visibility 10 miles    
Events Rain    
Averages and records for this station are not official NWS values.
T = Trace of Precipitation, MM = Missing Value Source: NWS Daily Summary

Daily Weather History Graph

Daily Weather History Graph

Search for Another Location

Airport or City:

Trip Planner

Search our weather history database for the weather conditions in past years. The results will help you decide how hot, cold, wet, or windy it might be!

Date:

Astronomy

Sep. 15, 2013 Rise Set
Actual Time 6:46 AM CDT 7:19 PM CDT
Civil Twilight 6:15 AM CDT 7:49 PM CDT
Nautical Twilight 5:39 AM CDT 8:25 PM CDT
Astronomical Twilight 5:02 AM CDT 9:03 PM CDT
Moon 4:57 PM CDT (9/15) 2:12 AM CDT (9/15)
Length of Visible Light 13h 33m
Length of Day
12h 33m
Waxing Gibbous, 82% of the Moon is Illuminated
Sep 15
Waxing Gibbous
Sep 19
Full
Sep 26
Last Quarter
Oct 4
New
Oct 11
First Quarter

Hourly Weather History & Observations

Time (CDT) Temp. Dew Point Humidity Pressure Visibility Wind Dir Wind Speed Gust Speed Precip Events Conditions
12:14 AM 57.2 °F 53.6 °F 88% 29.96 in 10.0 mi West 6.9 mph - N/A   Scattered Clouds
12:33 AM 57.2 °F 53.6 °F 88% 29.96 in 10.0 mi West 4.6 mph - N/A   Mostly Cloudy
12:53 AM 57.2 °F 53.6 °F 88% 29.95 in 10.0 mi SW 3.5 mph - N/A   Scattered Clouds
1:13 AM 57.2 °F 53.6 °F 88% 29.96 in 10.0 mi Calm Calm - N/A   Clear
1:33 AM 57.2 °F 53.6 °F 88% 29.96 in 10.0 mi WNW 4.6 mph - N/A   Mostly Cloudy
1:54 AM 57.2 °F 53.6 °F 88% 29.96 in 10.0 mi WNW 4.6 mph - N/A   Overcast
2:13 AM 57.2 °F 53.6 °F 88% 29.97 in 10.0 mi West 4.6 mph - N/A   Overcast
2:33 AM 57.2 °F 53.6 °F 88% 29.97 in 10.0 mi WSW 3.5 mph - N/A   Overcast
2:54 AM 57.2 °F 53.6 °F 88% 29.97 in 10.0 mi West 3.5 mph - N/A   Overcast
3:13 AM 57.2 °F 53.6 °F 88% 29.96 in 10.0 mi NW 3.5 mph - N/A   Overcast
3:33 AM 57.2 °F 53.6 °F 88% 29.97 in 10.0 mi NW 5.8 mph - N/A   Overcast
3:54 AM 57.2 °F 53.6 °F 88% 29.97 in 10.0 mi NNW 3.5 mph - N/A   Overcast
4:13 AM 57.2 °F 53.6 °F 88% 29.97 in 10.0 mi NNW 4.6 mph - N/A   Overcast
4:33 AM 57.2 °F 53.6 °F 88% 29.98 in 10.0 mi NW 3.5 mph - N/A   Overcast
4:54 AM 57.2 °F 53.6 °F 88% 29.99 in 10.0 mi Calm Calm - N/A Rain Light Rain
5:13 AM 57.2 °F 53.6 °F 88% 29.99 in 10.0 mi Calm Calm - N/A   Overcast
5:34 AM 57.2 °F 53.6 °F 88% 29.99 in 10.0 mi SW 3.5 mph - N/A   Overcast
5:53 AM 57.2 °F 53.6 °F 88% 29.99 in 10.0 mi SW 3.5 mph - N/A   Overcast
6:13 AM 57.2 °F 53.6 °F 88% 29.99 in 10.0 mi Calm Calm - N/A   Overcast
6:34 AM 57.2 °F 53.6 °F 88% 29.99 in 10.0 mi West 3.5 mph - N/A   Overcast
6:53 AM 57.2 °F 53.6 °F 88% 30.00 in 10.0 mi NW 4.6 mph - N/A   Overcast
7:13 AM 57.2 °F 53.6 °F 88% 30.01 in 10.0 mi NNW 6.9 mph - N/A   Overcast
7:34 AM 59.0 °F 55.4 °F 88% 30.02 in 10.0 mi North 9.2 mph - N/A   Overcast
7:53 AM 59.0 °F 55.4 °F 88% 30.03 in 10.0 mi NNE 13.8 mph - N/A   Overcast
8:13 AM 55.4 °F 53.6 °F 94% 30.04 in 7.0 mi NE 34.5 mph 43.7 mph N/A   Light Drizzle
8:34 AM 55.4 °F 53.6 °F 94% 30.06 in 7.0 mi NE 27.6 mph 33.4 mph N/A   Light Drizzle
8:53 AM 53.6 °F 51.8 °F 94% 30.07 in 7.0 mi ENE 33.4 mph - N/A Rain Light Rain
9:14 AM 53.6 °F 51.8 °F 94% 30.10 in 10.0 mi NE 25.3 mph 34.5 mph N/A   Overcast
9:33 AM 53.6 °F 51.8 °F 94% 30.11 in 10.0 mi NE 26.5 mph 32.2 mph N/A   Overcast
9:53 AM 53.6 °F 51.8 °F 94% 30.12 in 10.0 mi NE 26.5 mph 33.4 mph N/A   Overcast
10:14 AM 53.6 °F 51.8 °F 94% 30.13 in 10.0 mi ENE 28.8 mph 34.5 mph N/A   Overcast
10:33 AM 53.6 °F 51.8 °F 94% 30.15 in 10.0 mi ENE 28.8 mph - N/A   Overcast
10:53 AM 53.6 °F 51.8 °F 94% 30.16 in 10.0 mi ENE 27.6 mph 31.1 mph N/A   Overcast
11:14 AM 53.6 °F 51.8 °F 94% 30.17 in 10.0 mi ENE 27.6 mph - N/A   Overcast
11:33 AM 53.6 °F 51.8 °F 94% 30.18 in 10.0 mi ENE 27.6 mph - N/A   Overcast
11:54 AM 55.4 °F 50.0 °F 82% 30.18 in 10.0 mi ENE 27.6 mph - N/A   Overcast
12:13 PM 55.4 °F 50.0 °F 82% 30.20 in 10.0 mi ENE 21.9 mph - N/A   Overcast
12:33 PM 55.4 °F 50.0 °F 82% 30.20 in 10.0 mi East 27.6 mph - N/A   Overcast
12:54 PM 55.4 °F 50.0 °F 82% 30.20 in 10.0 mi ENE 24.2 mph - N/A   Overcast
1:13 PM 55.4 °F 50.0 °F 82% 30.22 in 10.0 mi ENE 23.0 mph - N/A   Overcast
1:33 PM 55.4 °F 48.2 °F 77% 30.22 in 10.0 mi ENE 21.9 mph - N/A   Overcast
1:53 PM 55.4 °F 50.0 °F 82% 30.23 in 10.0 mi ENE 19.6 mph - N/A   Overcast
2:13 PM 55.4 °F 50.0 °F 82% 30.23 in 10.0 mi ENE 18.4 mph - N/A   Overcast
2:34 PM 55.4 °F 48.2 °F 77% 30.24 in 10.0 mi ENE 18.4 mph - N/A   Overcast
2:53 PM 55.4 °F 48.2 °F 77% 30.24 in 10.0 mi ENE 16.1 mph - N/A   Overcast
3:13 PM 55.4 °F 48.2 °F 77% 30.25 in 10.0 mi ENE 13.8 mph - N/A   Overcast
3:34 PM 55.4 °F 48.2 °F 77% 30.25 in 10.0 mi ENE 11.5 mph - N/A   Overcast
3:53 PM 55.4 °F 48.2 °F 77% 30.26 in 10.0 mi ENE 10.4 mph - N/A   Overcast
4:14 PM 55.4 °F 48.2 °F 77% 30.26 in 10.0 mi ENE 10.4 mph - N/A   Overcast
4:33 PM 55.4 °F 48.2 °F 77% 30.26 in 10.0 mi ENE 10.4 mph - N/A   Overcast
4:53 PM 55.4 °F 48.2 °F 77% 30.27 in 10.0 mi East 6.9 mph - N/A   Overcast
5:14 PM 55.4 °F 48.2 °F 77% 30.28 in 10.0 mi ENE 8.1 mph - N/A   Overcast
5:33 PM 55.4 °F 46.4 °F 72% 30.28 in 10.0 mi East 3.5 mph - N/A   Mostly Cloudy
5:54 PM 55.4 °F 46.4 °F 72% 30.28 in 10.0 mi ENE 3.5 mph - N/A   Mostly Cloudy
6:13 PM 55.4 °F 46.4 °F 72% 30.28 in 10.0 mi East 3.5 mph - N/A   Mostly Cloudy
6:33 PM 53.6 °F 46.4 °F 77% 30.29 in 10.0 mi Calm Calm - N/A   Mostly Cloudy
6:53 PM 53.6 °F 46.4 °F 77% 30.29 in 10.0 mi Calm Calm - N/A   Scattered Clouds
7:14 PM 53.6 °F 46.4 °F 77% 30.29 in 10.0 mi East 3.5 mph - N/A   Scattered Clouds
7:33 PM 53.6 °F 46.4 °F 77% 30.29 in 10.0 mi Calm Calm - N/A   Clear
7:53 PM 53.6 °F 46.4 °F 77% 30.30 in 10.0 mi Calm Calm - N/A   Clear
8:13 PM 53.6 °F 46.4 °F 77% 30.30 in 10.0 mi ENE 3.5 mph - N/A   Clear
8:34 PM 53.6 °F 46.4 °F 77% 30.31 in 10.0 mi Calm Calm - N/A   Clear
8:53 PM 53.6 °F 46.4 °F 77% 30.31 in 10.0 mi NE 3.5 mph - N/A   Clear
9:13 PM 53.6 °F 46.4 °F 77% 30.31 in 10.0 mi East 3.5 mph - N/A   Clear
9:34 PM 53.6 °F 46.4 °F 77% 30.31 in 10.0 mi Calm Calm - N/A   Clear
9:53 PM 53.6 °F 46.4 °F 77% 30.32 in 10.0 mi Calm Calm - N/A   Clear
10:13 PM 53.6 °F 46.4 °F 77% 30.32 in 10.0 mi Calm Calm - N/A   Clear
10:34 PM 50.0 °F 46.4 °F 87% 30.33 in 10.0 mi WSW 3.5 mph - N/A   Clear
10:53 PM 50.0 °F 46.4 °F 87% 30.33 in 10.0 mi WSW 3.5 mph - N/A   Clear
11:14 PM 50.0 °F 48.2 °F 94% 30.33 in 10.0 mi West 4.6 mph - N/A   Clear
11:33 PM 50.0 °F 46.4 °F 87% 30.33 in 10.0 mi WSW 3.5 mph - N/A   Clear
11:53 PM 48.2 °F 46.4 °F 93% 30.34 in 10.0 mi SSW 3.5 mph - N/A   Clear